Jogging du foot de Olne
Jogging du foot de Olne 11/09/2015 - 8 km
Mise à jour le : 12/09/2015 à 08:51
Classement définitif, aucune correction possible
Place Nom Prénom Dossard Temps Vitesse Allure Place. Cat. Catégorie
1 CASTERMANS VINCENT 802 27:03 17,74 3:22 1 Séniors
2 SCHYNS NICOLAS 739 28:47 16,67 3:35 2 Séniors
3 HERZET FREDERICK 4 28:52 16,63 3:36 3 Séniors
4 MASUY GEOFFREY 849 29:12 16,43 3:39 4 Séniors
5 WIERTZ XAVIER 780 29:19 16,37 3:39 5 Séniors
6 DENOOZ DANIEL 219 29:30 16,26 3:41 1 Vétérans 2
7 DUQUENNE SAMUEL 252 29:40 16,18 3:42 6 Séniors
8 LEDUC JÉRÔME 844 29:46 16,12 3:43 7 Séniors
9 DESARCY ROBIN 879 29:56 16,03 3:44 1 Espoirs Garçons
10 BRONLET BENOIT 119 30:05 15,95 3:45 1 Vétérans 1
11 DELCOUR PHILIPPE 190 30:19 15,83 3:47 2 Vétérans 1
12 DEBIOLLE FREDERIC 206 30:29 15,74 3:48 8 Séniors
13 DUBOIS SAMUEL 246 30:31 15,73 3:48 9 Séniors
14 VAN HAUTEN KEVIN 650 30:38 15,67 3:49 10 Séniors
15 BLANCHY REGIS 86 30:41 15,64 3:50 11 Séniors
16 HOGGE GAETAN 880 30:42 15,63 3:50 2 Espoirs Garçons
17 HECK MARC 345 30:51 15,56 3:51 3 Vétérans 1
18 DEGUELDRE JEAN-LOUIS 810 31:02 15,46 3:52 2 Vétérans 2
19 HAZARD GAETAN 344 31:05 15,43 3:53 12 Séniors
20 LODOMEZ OLIVIER 454 31:13 15,37 3:54 13 Séniors
21 WOOLF ALAN 695 31:51 15,07 3:58 3 Vétérans 2
22 JUPRELLE VALERY 945 32:05 14,96 4:00 14 Séniors
23 BEUKEN SERGE 80 32:09 14,92 4:01 4 Vétérans 1
24 NAWYN BENJAMIN 5 32:12 14,91 4:01 5 Vétérans 1
25 DELOYER THOMAS 202 32:14 14,89 4:01 3 Espoirs Garçons
26 KEIL ALAIN 506 32:23 14,82 4:02 6 Vétérans 1
27 DOURCY ALAIN 898 32:36 14,72 4:04 15 Séniors
28 HEINRICHS YVES 815 32:45 14,65 4:05 16 Séniors
29 COLLARD ARNAUD 838 32:55 14,58 4:06 4 Espoirs Garçons
30 COLLARD SERGE 145 32:56 14,57 4:07 7 Vétérans 1
31 PIRENNE DAVID 539 32:59 14,55 4:07 8 Vétérans 1
32 DEWEZ JULIEN 870 33:03 14,52 4:07 5 Espoirs Garçons
33 OFFERMAN DANY 837 33:06 14,50 4:08 17 Séniors
34 TODDE VINCENT 836 33:14 14,44 4:09 18 Séniors
35 HECK NICOLAS 442 33:20 14,39 4:10 6 Espoirs Garçons
36 JOURDAN GUY 503 33:27 14,35 4:10 19 Séniors
37 MANFREDINI TIBER 884 33:43 14,23 4:12 9 Vétérans 1
38 GEROMBOUX BERTRAND 363 33:45 14,22 4:13 20 Séniors
39 STRAET PAOLO 856 33:46 14,21 4:13 7 Espoirs Garçons
40 PONCELET NICOLAS 703 33:48 14,20 4:13 21 Séniors
41 DONNEAU PIERRE 315 33:50 14,19 4:13 22 Séniors
42 CULOT CHRISTIAN 189 33:54 14,16 4:14 10 Vétérans 1
43 DEGUELDRE VINCENT 186 33:57 14,13 4:14 23 Séniors
44 EL BALDI DRISS 259 34:00 14,12 4:15 8 Espoirs Garçons
45 DEJARDIN FRED 927 34:03 14,09 4:15 11 Vétérans 1
46 FLAMAND MICHAEL 900 34:15 14,01 4:16 24 Séniors
47 DESSOUROUX JEAN 227 34:19 13,98 4:17 1 Vétérans 3
48 BOSCO TOM 847 34:23 13,96 4:17 25 Séniors
49 BECKERS PATRICK 66 34:27 13,93 4:18 12 Vétérans 1
50 NOIRHOMME PIERRE 667 34:42 13,83 4:20 26 Séniors
51 TECQMENNE MARTIN 910 34:46 13,80 4:20 9 Espoirs Garçons
52 JASPAR CHRISTIAN 383 34:50 13,78 4:21 2 Vétérans 3
53 WEICKMANS DAVID 684 35:01 13,71 4:22 27 Séniors
54 VAN HEUSDEN GEOFFREY 790 35:05 13,68 4:23 28 Séniors
55 HORWARD FRANCOISE 365 35:07 13,67 4:23 1 Ainées 1
56 EL BALDI SAID 258 35:09 13,66 4:23 13 Vétérans 1
57 SCHOFFENIELS AEXANDRE 806 35:10 13,64 4:23 10 Espoirs Garçons
58 ANTONELLI THOMAS 925 35:13 13,63 4:24 11 Espoirs Garçons
59 TECQMENNE MAXIME 911 35:15 13,61 4:24 29 Séniors
60 KEIL YVES 509 35:28 13,53 4:26 14 Vétérans 1
61 JUSTE CHRISTIAAN 398 35:35 13,49 4:26 4 Vétérans 2
62 KEYDENER ARNAUD 403 35:42 13,44 4:27 30 Séniors
63 NYSSEN PIERRE 723 35:44 13,43 4:28 15 Vétérans 1
64 PIERRE FABIAN 538 35:47 13,41 4:28 31 Séniors
65 SOMJA JEAN PHILIPPE 613 35:49 13,40 4:28 32 Séniors
66 KARIGER THOMAS 817 35:51 13,39 4:28 12 Espoirs Garçons
67 WIERTZ JEREMY 894 35:54 13,37 4:29 33 Séniors
68 WIERTZ ARNAUD 779 35:55 13,36 4:29 34 Séniors
69 THIELEN ALAIN 630 35:57 13,35 4:29 16 Vétérans 1
70 VIRONE VALENTIN 924 35:58 13,34 4:29 35 Séniors
71 LEROY ROMAIN 808 35:59 13,34 4:29 13 Espoirs Garçons
72 KILESSE REMI 404 36:00 13,33 4:30 36 Séniors
73 MEYS CLAUDE 616 36:08 13,28 4:31 17 Vétérans 1
74 SIEMES JASON 944 36:08 13,28 4:31 37 Séniors
75 HOUSSET THOMAS 938 36:10 13,27 4:31 38 Séniors
76 ROLLON STEPHANE 901 36:20 13,21 4:32 39 Séniors
77 SCAFF ETIENNE 922 36:22 13,20 4:32 14 Espoirs Garçons
78 STEFFENS BENOIT 749 36:27 13,17 4:33 40 Séniors
79 PIRARD PHILIPPE 941 36:28 13,16 4:33 41 Séniors
80 FONTAINE SERGE 291 36:33 13,13 4:34 18 Vétérans 1
81 SCAFF MATHIEU 920 36:35 13,12 4:34 42 Séniors
82 LEGRAND STEVE 881 36:56 13,00 4:37 43 Séniors
83 ANSAY WILLIAM 903 36:58 12,98 4:37 44 Séniors
84 BLANCHY GILLES 85 37:01 12,97 4:37 5 Vétérans 2
85 RENSON JEAN LUC 948 37:06 12,94 4:38 19 Vétérans 1
86 BERTHOLOME VINCENT 78 37:08 12,93 4:38 45 Séniors
87 SOUGNEZ JEREMY 946 37:10 12,91 4:38 46 Séniors
88 FRANCHIN LUDOVIC 829 37:13 12,90 4:39 47 Séniors
89 CRASSON VINCENT 831 37:14 12,89 4:39 6 Vétérans 2
90 CAHAY FABRICE 942 37:16 12,88 4:39 48 Séniors
91 VAN DE WINKEL THOMAS 763 37:18 12,86 4:39 49 Séniors
92 FAFCHAMPS CLAUDINE 818 37:21 12,85 4:40 1 Ainées 2
93 DEMONCEAU JEAN LUC 952 37:23 12,84 4:40 20 Vétérans 1
94 DIRCK JULIEN 301 37:24 12,83 4:40 50 Séniors
95 WATAR FRANCIS 776 37:27 12,82 4:40 21 Vétérans 1
96 KILESSE REGIS 867 37:28 12,81 4:41 51 Séniors
97 DONNEAU BENOIT 311 37:30 12,80 4:41 52 Séniors
98 WARGNIES VINCENT 866 37:31 12,79 4:41 53 Séniors
99 RENARD LIONEL 886 37:33 12,78 4:41 54 Séniors
100 MALMENDIER MATHIEU 885 37:39 12,75 4:42 55 Séniors
101 BIDOUL GIL 75 37:46 12,71 4:43 56 Séniors
102 FOCKEDEY ANNE 350 37:51 12,68 4:43 2 Ainées 1
103 HURLET LUCIEN 724 37:57 12,65 4:44 7 Vétérans 2
104 ROBINET DANY 577 38:00 12,63 4:45 57 Séniors
105 LAMBERT CHRISTOPHE 413 38:02 12,62 4:45 58 Séniors
106 DEVILLERS JONATHAN 285 38:04 12,61 4:45 59 Séniors
107 BERTRAND DOMINIQUE 517 38:08 12,59 4:46 8 Vétérans 2
108 ORBAN SARAH 528 38:14 12,55 4:46 1 Dames
109 KEVELAER BEATRICE 895 38:28 12,47 4:48 3 Ainées 1
110 CHEFNEUX SEBASTIEN 140 38:31 12,46 4:48 60 Séniors
111 ROYEN STEPHANE 850 38:32 12,45 4:49 22 Vétérans 1
112 ERNST ANDRE 265 38:37 12,42 4:49 9 Vétérans 2
113 HIERNAUX AURELIE 467 38:42 12,40 4:50 4 Ainées 1
114 BOLLETTE ANTHONY 939 38:48 12,37 4:51 61 Séniors
115 HENROTTE THIERRY 871 38:50 12,36 4:51 23 Vétérans 1
116 DUFOUR AXEL 891 38:54 12,34 4:51 62 Séniors
117 FONTAINE ROBIN 812 38:56 12,33 4:52 15 Espoirs Garçons
118 DELNEUVILLE PHILIPPE 199 38:58 12,32 4:52 24 Vétérans 1
119 DELNEUVILLE ERIC 200 38:59 12,31 4:52 25 Vétérans 1
120 LONNEUX MARCEL 458 39:00 12,31 4:52 10 Vétérans 2
121 COLLIGNON NATHAN 816 39:02 12,30 4:52 16 Espoirs Garçons
122 DEVILLERS ALAIN 282 39:03 12,29 4:52 11 Vétérans 2
123 BAGUETTE GUILLAUME 929 39:05 12,28 4:53 17 Espoirs Garçons
124 CARL ROGER 809 39:06 12,27 4:53 3 Vétérans 3
125 GODDE CHRISTOPHE 811 39:08 12,27 4:53 63 Séniors
126 THONNARD EMILIE 634 39:09 12,26 4:53 1 Espoirs Filles
127 VAESSEN SOPHIE 762 39:10 12,25 4:53 2 Dames
128 HOCK MICHAEL 468 39:12 12,24 4:54 64 Séniors
129 LALLEMAND GERARD 841 39:15 12,22 4:54 65 Séniors
130 EVRARD ROBIN 934 39:18 12,21 4:54 66 Séniors
131 SCAFF GERARD 921 39:25 12,18 4:55 26 Vétérans 1
132 HANSEZ JOEL 943 39:30 12,15 4:56 27 Vétérans 1
133 DORTU AXEL 892 39:31 12,14 4:56 67 Séniors
134 DORTU DAMIEN 923 39:32 12,14 4:56 68 Séniors
135 DETHIER MARTIN 937 39:46 12,07 4:58 69 Séniors
136 STAINIER ERIC 852 39:47 12,06 4:58 12 Vétérans 2
137 LAROSE DANIEL 912 39:48 12,06 4:58 13 Vétérans 2
138 VANARDOIS OLIVIER 947 39:50 12,05 4:58 70 Séniors
139 ROUFOSSE PIERROT 846 39:58 12,01 4:59 18 Espoirs Garçons
140 CHRISTIAEN FRANCOIS 156 40:02 11,99 5:00 71 Séniors
141 DUBOIS PASCAL 332 40:02 11,99 5:00 72 Séniors
142 SCHREURS BERNARD 600 40:02 11,99 5:00 73 Séniors
143 NEUVILLE PIERRE 896 40:04 11,98 5:00 74 Séniors
144 DERKENNE MAXIME 928 40:08 11,96 5:01 19 Espoirs Garçons
145 TIMMERMANN GHISLAIN 832 40:09 11,95 5:01 14 Vétérans 2
146 CORTEIL MATHIEU 878 40:11 11,95 5:01 75 Séniors
147 HOMBURG GEOFFREY 471 40:12 11,94 5:01 76 Séniors
148 FRANCK LIONEL 858 40:14 11,93 5:01 77 Séniors
149 JACQUEMOTTE LUDOVIC 375 40:26 11,87 5:03 78 Séniors
150 BAIJOT NICOLAS 904 40:28 11,86 5:03 28 Vétérans 1
151 PESSER ALAIN 535 40:31 11,85 5:03 29 Vétérans 1
152 BREUER CLAIRE 868 40:35 11,83 5:04 5 Ainées 1
153 EVRARD JOHAN 270 40:36 11,82 5:04 79 Séniors
154 BAGUETTE IVAN 930 40:47 11,77 5:05 30 Vétérans 1
155 LEKEU GILBERT 830 40:48 11,76 5:06 15 Vétérans 2
156 SCHATTENBERG ANTHONY 862 40:50 11,75 5:06 80 Séniors
157 VANDEGAAR TONY 655 40:51 11,75 5:06 4 Vétérans 3
158 COLLARD JONATHAN 914 40:52 11,74 5:06 81 Séniors
159 ANDRIEN TONY 51 40:55 11,73 5:06 16 Vétérans 2
160 GOMZE MICHEL 272 40:56 11,72 5:07 31 Vétérans 1
161 NAWAY LUDOVIC 876 41:10 11,66 5:08 82 Séniors
162 DEMOL CINDY 211 41:16 11,63 5:09 6 Ainées 1
163 SECLI MAX 744 41:16 11,63 5:09 83 Séniors
164 DELOYER JEAN-PAUL 237 41:17 11,62 5:09 32 Vétérans 1
165 THISSEN CHRISTOPHE 899 41:21 11,61 5:10 33 Vétérans 1
166 MASSART ROMAIN 893 41:33 11,55 5:11 20 Espoirs Garçons
167 BERTRANG JULIEN 79 41:35 11,54 5:11 5 Vétérans 3
168 NAHON SYLVIE 516 41:40 11,52 5:12 2 Ainées 2
169 ADAM MURIELLE 39 41:49 11,48 5:13 3 Dames
170 PIRARD ALLISON 827 41:51 11,47 5:13 4 Dames
171 DESENFANTS ROMAIN 915 41:57 11,44 5:14 84 Séniors
172 SACRE CHRISTOPHE 863 41:59 11,43 5:14 85 Séniors
173 CORMAN MICHAEL 152 42:04 11,41 5:15 86 Séniors
174 LAMBERT BORIS 875 42:06 11,40 5:15 87 Séniors
175 DELHEZ ROBIN 874 42:11 11,38 5:16 21 Espoirs Garçons
176 DELHEZ ALAIN 873 42:11 11,38 5:16 34 Vétérans 1
177 BAAR PIERRE 872 42:11 11,38 5:16 17 Vétérans 2
178 DELEUZE JEAN-LUC 229 42:15 11,36 5:16 18 Vétérans 2
179 CHEBIL RAMI 139 42:35 11,27 5:19 88 Séniors
180 KONINGS NATHALIE 526 42:43 11,23 5:20 3 Ainées 2
181 CAMPIONE JONATHAN 833 42:47 11,22 5:20 89 Séniors
182 HALLEUX JEAN MARIE 337 42:50 11,20 5:21 35 Vétérans 1
183 NYSSEN ALAIN 907 42:51 11,20 5:21 36 Vétérans 1
184 DAHM JOSE 164 42:53 11,19 5:21 1 Vétérans 4
185 VANAUBEL MARILYN 765 42:55 11,18 5:21 5 Dames
186 DETHIER NICOLAS 801 43:04 11,14 5:23 90 Séniors
187 SARLET JULIE 732 43:06 11,13 5:23 6 Dames
188 PLUNUS SONIA 545 43:09 11,12 5:23 1 Ainées 3
189 PLUNUS ALAIN 546 43:10 11,12 5:23 19 Vétérans 2
190 ABAD LAMAS PATRICIA 37 43:13 11,11 5:24 4 Ainées 2
191 LEJEUNE DYLAN 814 43:15 11,10 5:24 22 Espoirs Garçons
192 COUNOTTE TOM 905 43:18 11,08 5:24 23 Espoirs Garçons
193 COUNOTTE XAVIER 791 43:19 11,08 5:24 91 Séniors
194 LENZINI JULIEN 951 43:25 11,06 5:25 92 Séniors
195 DETHIER BERYL 267 43:38 11,00 5:27 7 Dames
196 ROUFOSSE UGO 34 43:52 10,94 5:29 37 Vétérans 1
197 JEANMOTTE AURELIE 864 44:04 10,89 5:30 8 Dames
198 DAHM CHANTAL 926 44:07 10,88 5:30 5 Ainées 2
199 BLETARD JEROME 859 44:14 10,85 5:31 93 Séniors
200 VALENTI ROBERT 933 44:18 10,83 5:32 94 Séniors
201 HERMANNS CEDRIC 936 44:57 10,68 5:37 95 Séniors
202 WEUSTEN CEDRIC 778 45:00 10,67 5:37 96 Séniors
203 DACHOUFFE RENAUD 909 45:04 10,65 5:38 97 Séniors
204 LAMINE OLIVIER 908 45:10 10,62 5:38 98 Séniors
205 STAINIER EMILIE 851 45:12 10,62 5:39 2 Espoirs Filles
206 WEBER GILBERTE 682 45:15 10,61 5:39 2 Ainées 3
207 RENAERS STEPHANE 562 45:26 10,56 5:40 38 Vétérans 1
208 NOIRFALISE CECILE 523 45:27 10,56 5:40 7 Ainées 1
209 MUYTERS CHRISTIAN 514 45:28 10,56 5:41 6 Vétérans 3
210 LEMEUNIER GEOFFREY 857 45:37 10,52 5:42 99 Séniors
211 MERCENIER JEAN-LUC 496 45:46 10,49 5:43 39 Vétérans 1
212 PIEROT GUY 835 45:59 10,44 5:44 7 Vétérans 3
213 SPREUTELS JEAN-MARC 834 46:08 10,40 5:46 100 Séniors
214 LEJEUNE DAVID 553 46:10 10,40 5:46 40 Vétérans 1
215 BONIVER NANCY 31 46:18 10,36 5:47 8 Ainées 1
216 RUIZ SABRINA 729 46:18 10,36 5:47 9 Dames
217 ROUSCHOP ANTOINE 805 46:21 10,35 5:47 8 Vétérans 3
218 PREUMONT MICHEL 555 46:25 10,34 5:48 9 Vétérans 3
219 DEGUELDRE PATRICK 932 46:30 10,32 5:48 41 Vétérans 1
220 BALCZUNAS SARAH 877 46:55 10,23 5:51 10 Dames
221 EL BALDI FATIHA 256 47:21 10,14 5:55 9 Ainées 1
222 DELSEMME ANDRE 804 47:22 10,13 5:55 42 Vétérans 1
223 EL BALDI HINDE 799 47:29 10,11 5:56 3 Espoirs Filles
224 PAOLELLA CAROLINA 813 47:33 10,09 5:56 11 Dames
225 SCHOLTIS EDOUARD 803 47:35 10,08 5:56 43 Vétérans 1
226 DELAIRESSE GILBERT 225 47:53 10,02 5:59 2 Vétérans 4
227 LAHAYE FURAHA 917 48:36 9,88 6:04 12 Dames
228 GEIEBENNE CAROLINE 916 48:37 9,87 6:04 13 Dames
229 LEROY ADRIEN 807 48:38 9,87 6:04 24 Espoirs Garçons
230 KUMMELER STEPHANIE 527 48:40 9,86 6:05 10 Ainées 1
231 NICKELS DANIELLE 640 48:44 9,85 6:05 3 Ainées 3
232 NISTAJAKIS LAURA 906 48:57 9,80 6:07 14 Dames
233 PIGNEUR SAMUEL 839 49:37 9,67 6:12 25 Espoirs Garçons
234 LEDENT NORA 822 49:39 9,67 6:12 4 Espoirs Filles
235 PIGNEUR DAVID 840 49:40 9,66 6:12 101 Séniors
236 PREUMONT GILLES 848 49:42 9,66 6:12 102 Séniors
237 DUBLET SERGE 845 49:55 9,61 6:14 10 Vétérans 3
238 VANHAEREN CHRISTINE 825 49:57 9,61 6:14 6 Ainées 2
239 SARTOR PATRICIA 820 49:58 9,60 6:14 7 Ainées 2
240 POHL DIDIER 702 50:00 9,60 6:15 20 Vétérans 2
241 LORQUET JEAN - MARC 10 50:01 9,59 6:15 21 Vétérans 2
242 WOUTERS CATHERINE 918 50:03 9,59 6:15 11 Ainées 1
243 LEMAUVAIS LAURENCE 919 50:04 9,58 6:15 12 Ainées 1
244 MUYTERS SERGE 515 50:18 9,54 6:17 3 Vétérans 4
245 JENNE BENJAMIN 828 50:26 9,52 6:18 103 Séniors
246 WILKIN ANDRE 690 50:39 9,48 6:19 11 Vétérans 3
247 NICKELS CLAIRE 855 50:44 9,46 6:20 13 Ainées 1
248 FRYNS GILBERT 299 50:59 9,41 6:22 12 Vétérans 3
249 RENARD BRYAN 935 51:11 9,38 6:23 104 Séniors
250 LEMPEREUR DAMIEN 940 51:21 9,35 6:25 105 Séniors
251 ALFIER LAETITIA 882 51:25 9,33 6:25 14 Ainées 1
252 POLYS RAPHAEL 853 51:46 9,27 6:28 106 Séniors
253 HURDEBISE VANESSA 854 51:48 9,27 6:28 15 Ainées 1
254 LALLEMAND GWEN 842 51:49 9,26 6:28 15 Dames
255 FERNANDES ELSA 950 51:55 9,25 6:29 16 Dames
256 SCHMITS CHARLOTTE 735 52:58 9,06 6:37 17 Dames
257 CERFONT CATHERINE 823 53:05 9,04 6:38 16 Ainées 1
258 DEMOULIN FABIENNE 821 53:05 9,04 6:38 17 Ainées 1
259 BAMPS MAGALI 826 53:12 9,02 6:39 18 Ainées 1
260 LAMBERT BRIGITTE 949 53:18 9,00 6:39 4 Ainées 3
261 SCHMITS EMILIE 736 53:23 8,99 6:40 18 Dames
262 NEUVILLE SOPHIE 897 53:31 8,97 6:41 19 Dames
263 DE VOS ALAN 865 53:33 8,96 6:41 26 Espoirs Garçons
264 FETTWEIS GAELLE 280 53:37 8,95 6:42 20 Dames
265 MAQUINAY FELICIEN 475 54:04 8,88 6:45 22 Vétérans 2
266 JONLET LIONEL 13 54:04 8,88 6:45 107 Séniors
267 DE VYLDER ANNE 890 54:20 8,83 6:47 8 Ainées 2
268 DERKENNE BENEDICTE 889 54:20 8,83 6:47 19 Ainées 1
269 CALIFICE HUBERTE 128 54:51 8,75 6:51 5 Ainées 3
270 GOTREAU CHRISTINE 913 55:21 8,67 6:55 9 Ainées 2
271 DE CORTE NELE 902 56:45 8,46 7:05 21 Dames
272 MATAGNE MURIEL 888 56:51 8,44 7:06 20 Ainées 1
273 THIELS TINEKE 887 56:51 8,44 7:06 21 Ainées 1
274 GROBARCZYK SOPHIE 860 56:57 8,43 7:07 22 Dames
275 GROBARCZYK BENJAMIN 861 56:57 8,43 7:07 108 Séniors
276 MONTIGNY ISABELLE 819 56:59 8,42 7:07 22 Ainées 1
277 STRUVAY DAMIENNE 883 58:13 8,24 7:16 23 Ainées 1
278 BOVY FRANCOISE 931 58:13 8,24 7:16 24 Ainées 1
279 VANDERMAESEN CAROLINE 869 1:01:39 7,78 7:42 25 Ainées 1
280 LECOMTE STEPHANIE 843 1:03:33 7,55 7:56 23 Dames